Location: Izdebno
(52.6670°N, 16.2170°E)
Time: 05:40:33
(UTC+02:00)

A-11 Canister half - Pass Details

Date: 13 February 2023
Orbit: 1526 x 1682 km, 47.3° (Epoch: 25 March)

Event Time Altitude Azimuth Distance (km) Brightness Sun altitude
Rises 08:27:53 0° 282° (WNW) 4,681 11.0 8.7°
Reaches altitude 10° 08:31:05 10° 276° (W) 3,701 10.5 9.1°
Maximum altitude 08:39:37 43° 210° (SSW) 2,071 10.0 10.1°
Drops below altitude 10° 08:48:20 10° 143° (SE) 3,768 13.2 11.1°
Sets 08:51:38 0° 137° (SE) 4,772 13.7 11.5°
